EW8415 Weather Reports


Display with metric or nautical units.
time (UTC)temp
F
wind
direction
speed
MPH
gust
MPH
rain 1hr
in
rain 24hr
in
rain mn
in
humidity
%
barometer
mb
20260505051505 59 211 0.0 0.0 0.00 0.00 0.00 83 1009.8
20260505041600 61 211 0.0 0.0 0.00 0.00 0.00 81 1010.0
20260505040100 61 211 0.0 0.0 0.00 0.00 0.00 79 1010.2
20260505034617 62 211 0.0 0.0 0.00 0.00 0.00 76 1010.1
20260505033105 62 211 0.0 0.0 0.00 0.00 0.00 75 1010.3
20260505031559 63 211 0.0 0.0 0.00 0.00 0.00 77 1010.3
20260505030058 64 211 0.0 0.0 0.00 0.00 0.00 74 1009.9
20260505024557 64 211 0.0 0.0 0.00 0.00 0.00 75 1009.9
20260505023101 65 211 0.0 0.0 0.00 0.00 0.00 72 1009.6
20260505021559 66 211 0.0 0.0 0.00 0.00 0.00 69 1009.4
20260505020100 67 211 0.0 0.0 0.00 0.00 0.00 69 1009.2
20260505014556 68 211 0.0 0.0 0.00 0.00 0.00 65 1009.2
20260505013058 69 211 0.0 0.0 0.00 0.00 0.00 65 1009.1
20260505011611 71 211 0.0 0.0 0.00 0.00 0.00 62 1008.9
20260505010055 72 230 0.0 1.0 0.00 0.00 0.00 61 1008.8
20260505004604 73 230 0.0 2.0 0.00 0.00 0.00 60 1008.8
20260505003056 74 219 0.0 2.0 0.00 0.00 0.00 59 1009.0
20260505001608 75 273 0.0 3.0 0.00 0.00 0.00 58 1009.0
20260505000106 75 172 0.0 4.0 0.00 0.00 0.00 57 1008.9
20260504234555 75 119 0.0 9.0 0.00 0.00 0.00 55 1009.0
20260504233103 76 186 2.0 11.0 0.00 0.00 0.00 54 1009.1
20260504231548 77 175 1.0 6.0 0.00 0.00 0.00 53 1009.4
20260504230047 78 167 2.0 7.0 0.00 0.00 0.00 51 1009.6
20260504224546 78 202 2.0 9.0 0.00 0.00 0.00 51 1009.8
20260504223046 78 184 3.0 11.0 0.00 0.00 0.00 51 1009.8
20260504221544 78 202 4.0 12.0 0.00 0.00 0.00 50 1010.0
20260504220043 78 241 3.0 10.0 0.00 0.00 0.00 51 1010.0
20260504214542 78 173 1.0 8.0 0.00 0.00 0.00 51 1010.1
20260504213041 79 15 4.0 11.0 0.00 0.00 0.00 49 1010.3
20260504211539 79 226 3.0 9.0 0.00 0.00 0.00 50 1010.5
20260504210039 79 223 3.0 10.0 0.00 0.00 0.00 49 1010.6
20260504204536 79 178 3.0 9.0 0.00 0.00 0.00 50 1011.0
20260504203034 79 222 4.0 12.0 0.00 0.00 0.00 50 1011.1
20260504201533 79 194 4.0 12.0 0.00 0.00 0.00 51 1011.5
20260504200032 79 228 5.0 10.0 0.00 0.00 0.00 49 1011.7
20260504194531 79 144 3.0 12.0 0.00 0.00 0.00 51 1012.0
20260504193025 78 192 4.0 11.0 0.00 0.00 0.00 49 1012.4
20260504191522 78 281 6.0 12.0 0.00 0.00 0.00 50 1012.5
20260504190025 78 119 5.0 12.0 0.00 0.00 0.00 51 1012.7
20260504184523 77 98 3.0 14.0 0.00 0.00 0.00 53 1012.9
20260504183017 77 138 4.0 10.0 0.00 0.00 0.00 51 1013.2
20260504181514 76 233 4.0 10.0 0.00 0.00 0.00 51 1013.2
20260504180012 76 205 5.0 12.0 0.00 0.00 0.00 51 1013.4
20260504174512 76 217 4.0 13.0 0.00 0.00 0.00 51 1013.6
20260504173007 76 254 4.0 12.0 0.00 0.00 0.00 51 1014.0
20260504171504 75 246 3.0 12.0 0.00 0.00 0.00 54 1014.0
20260504100103 55 153 0.0 0.0 0.00 0.00 0.00 83 1015.1
20260504090105 57 153 0.0 0.0 0.00 0.00 0.00 82 1015.1
20260504081547 59 153 0.0 1.0 0.00 0.00 0.00 80 1015.0